Time,TemperatureF,DewpointF,PressureIn,WindDirection,WindDirectionDegrees,WindSpeedMPH,WindSpeedGustMPH,Humidity,HourlyPrecipIn,Conditions,Clouds,dailyrainin,SoftwareType,DateUTC
2013-06-16 00:07:00,81.7,75.0,29.94,South,169,15.0,18.0,79,0.00,,,0.41,weatherlink.com 1.10,2013-06-16 05:07:00,
2013-06-16 00:22:00,81.6,74.0,29.93,SSE,160,11.0,23.0,78,0.00,,,0.41,weatherlink.com 1.10,2013-06-16 05:22:00,
2013-06-16 00:37:00,81.5,74.0,29.93,South,169,14.0,22.0,79,0.00,,,0.41,weatherlink.com 1.10,2013-06-16 05:37:00,
2013-06-16 00:52:00,81.5,74.0,29.93,SSE,152,11.0,24.0,78,0.00,,,0.41,weatherlink.com 1.10,2013-06-16 05:52:00,
2013-06-16 01:07:00,81.4,74.0,29.92,SE,141,19.0,23.0,79,0.00,,,0.41,weatherlink.com 1.10,2013-06-16 06:07:00,
2013-06-16 01:22:00,81.3,75.0,29.92,SE,140,11.0,20.0,80,0.00,,,0.41,weatherlink.com 1.10,2013-06-16 06:22:00,
2013-06-16 01:37:00,81.4,75.0,29.93,SSE,162,13.0,20.0,80,0.00,,,0.41,weatherlink.com 1.10,2013-06-16 06:37:00,
2013-06-16 01:52:00,81.4,74.0,29.92,SSW,198,15.0,22.0,79,0.00,,,0.00,weatherlink.com 1.10,2013-06-16 06:52:00,
2013-06-16 02:07:00,81.4,74.0,29.93,SSE,163,14.0,20.0,79,0.00,,,0.00,weatherlink.com 1.10,2013-06-16 07:07:00,
2013-06-16 02:22:00,81.5,75.0,29.92,South,178,12.0,23.0,80,0.00,,,0.00,weatherlink.com 1.10,2013-06-16 07:22:00,
2013-06-16 02:37:00,81.4,74.0,29.92,SSE,159,16.0,23.0,79,0.00,,,0.00,weatherlink.com 1.10,2013-06-16 07:37:00,
2013-06-16 02:52:00,81.5,74.0,29.92,SSE,160,14.0,22.0,78,0.00,,,0.00,weatherlink.com 1.10,2013-06-16 07:52:00,
2013-06-16 03:07:00,81.4,74.0,29.91,South,190,16.0,24.0,78,0.00,,,0.00,weatherlink.com 1.10,2013-06-16 08:07:00,
2013-06-16 03:22:00,81.3,73.0,29.90,South,175,18.0,22.0,77,0.00,,,0.00,weatherlink.com 1.10,2013-06-16 08:22:00,
2013-06-16 03:37:00,81.2,74.0,29.90,SE,144,14.0,22.0,78,0.00,,,0.00,weatherlink.com 1.10,2013-06-16 08:37:00,
2013-06-16 03:52:00,81.3,74.0,29.89,SSE,159,9.0,24.0,79,0.00,,,0.00,weatherlink.com 1.10,2013-06-16 08:52:00,
2013-06-16 04:07:00,81.1,74.0,29.90,SSE,151,12.0,21.0,80,0.00,,,0.00,weatherlink.com 1.10,2013-06-16 09:07:00,
2013-06-16 04:22:00,81.1,74.0,29.90,SSE,150,19.0,22.0,79,0.00,,,0.00,weatherlink.com 1.10,2013-06-16 09:22:00,
2013-06-16 04:37:00,81.0,74.0,29.90,SE,144,10.0,20.0,80,0.00,,,0.00,weatherlink.com 1.10,2013-06-16 09:37:00,
2013-06-16 04:52:00,81.1,74.0,29.90,SSE,168,14.0,22.0,79,0.00,,,0.00,weatherlink.com 1.10,2013-06-16 09:52:00,
2013-06-16 05:07:00,81.0,74.0,29.90,South,172,20.0,23.0,80,0.00,,,0.00,weatherlink.com 1.10,2013-06-16 10:07:00,
2013-06-16 05:22:00,81.1,75.0,29.90,SSE,165,20.0,23.0,81,0.00,,,0.00,weatherlink.com 1.10,2013-06-16 10:22:00,
2013-06-16 05:37:00,81.1,75.0,29.90,SSE,167,13.0,23.0,81,0.00,,,0.00,weatherlink.com 1.10,2013-06-16 10:37:00,
2013-06-16 05:52:00,81.1,74.0,29.90,SE,140,16.0,24.0,80,0.00,,,0.00,weatherlink.com 1.10,2013-06-16 10:52:00,
2013-06-16 06:07:00,81.0,74.0,29.90,SE,142,16.0,22.0,80,0.00,,,0.00,weatherlink.com 1.10,2013-06-16 11:07:00,
2013-06-16 06:22:00,81.0,74.0,29.91,SSE,150,16.0,22.0,80,0.00,,,0.00,weatherlink.com 1.10,2013-06-16 11:22:00,
2013-06-16 06:37:00,81.1,74.0,29.91,SSE,168,14.0,22.0,80,0.00,,,0.00,weatherlink.com 1.10,2013-06-16 11:37:00,
2013-06-16 06:52:00,81.0,75.0,29.91,South,171,14.0,22.0,82,0.00,,,0.00,weatherlink.com 1.10,2013-06-16 11:52:00,
2013-06-16 07:07:00,81.3,75.0,29.92,SSE,168,10.0,19.0,81,0.00,,,0.00,weatherlink.com 1.10,2013-06-16 12:07:00,
2013-06-16 07:22:00,81.6,75.0,29.93,SSE,148,13.0,18.0,81,0.00,,,0.00,weatherlink.com 1.10,2013-06-16 12:22:00,
2013-06-16 07:37:00,82.2,76.0,29.94,SE,142,11.0,19.0,80,0.00,,,0.00,weatherlink.com 1.10,2013-06-16 12:37:00,
2013-06-16 07:52:00,82.4,75.0,29.94,SSE,150,11.0,20.0,79,0.00,,,0.00,weatherlink.com 1.10,2013-06-16 12:52:00,
2013-06-16 08:07:00,82.7,76.0,29.95,SSE,159,13.0,21.0,79,0.00,,,0.00,weatherlink.com 1.10,2013-06-16 13:07:00,
2013-06-16 08:22:00,82.9,76.0,29.95,SE,146,13.0,18.0,79,0.00,,,0.00,weatherlink.com 1.10,2013-06-16 13:22:00,
2013-06-16 08:37:00,83.5,76.0,29.95,SE,132,14.0,16.0,78,0.00,,,0.00,weatherlink.com 1.10,2013-06-16 13:37:00,
2013-06-16 08:52:00,84.2,76.0,29.97,SSE,161,11.0,19.0,76,0.00,,,0.00,weatherlink.com 1.10,2013-06-16 13:52:00,
2013-06-16 09:07:00,83.7,76.0,29.97,SSE,154,12.0,21.0,77,0.00,,,0.00,weatherlink.com 1.10,2013-06-16 14:07:00,
2013-06-16 09:23:00,84.0,76.0,29.97,SE,131,11.0,21.0,76,0.00,,,0.00,weatherlink.com 1.10,2013-06-16 14:23:00,
2013-06-16 09:38:00,84.5,76.0,29.98,SE,130,12.0,20.0,75,0.00,,,0.00,weatherlink.com 1.10,2013-06-16 14:38:00,
2013-06-16 09:53:00,84.1,76.0,29.97,SSE,163,11.0,20.0,76,0.00,,,0.00,weatherlink.com 1.10,2013-06-16 14:53:00,
2013-06-16 10:08:00,84.4,76.0,29.97,SE,145,12.0,21.0,75,0.00,,,0.00,weatherlink.com 1.10,2013-06-16 15:08:00,
2013-06-16 10:23:00,84.7,76.0,29.98,SE,145,7.0,16.0,75,0.00,,,0.00,weatherlink.com 1.10,2013-06-16 15:23:00,
2013-06-16 10:38:00,84.8,76.0,29.97,SSE,161,10.0,20.0,75,0.00,,,0.00,weatherlink.com 1.10,2013-06-16 15:38:00,
2013-06-16 10:53:00,85.5,76.0,29.98,ESE,115,11.0,19.0,74,0.00,,,0.00,weatherlink.com 1.10,2013-06-16 15:53:00,
2013-06-16 11:08:00,85.6,76.0,29.98,SE,142,15.0,21.0,74,0.00,,,0.00,weatherlink.com 1.10,2013-06-16 16:08:00,
2013-06-16 11:23:00,85.7,77.0,29.97,SE,131,12.0,21.0,74,0.00,,,0.00,weatherlink.com 1.10,2013-06-16 16:23:00,
2013-06-16 11:38:00,86.6,77.0,29.98,SE,124,12.0,20.0,73,0.00,,,0.00,weatherlink.com 1.10,2013-06-16 16:38:00,
2013-06-16 11:53:00,86.9,77.0,29.97,SE,125,11.0,21.0,72,0.00,,,0.00,weatherlink.com 1.10,2013-06-16 16:53:00,
2013-06-16 12:08:00,85.9,76.0,29.97,SSE,160,13.0,21.0,73,0.00,,,0.00,weatherlink.com 1.10,2013-06-16 17:08:00,
2013-06-16 12:23:00,86.3,77.0,29.97,SE,126,20.0,22.0,73,0.00,,,0.00,weatherlink.com 1.10,2013-06-16 17:23:00,
2013-06-16 12:38:00,86.6,77.0,29.97,SE,138,11.0,22.0,73,0.00,,,0.00,weatherlink.com 1.10,2013-06-16 17:38:00,
2013-06-16 12:53:00,86.6,77.0,29.97,ESE,121,18.0,21.0,72,0.00,,,0.00,weatherlink.com 1.10,2013-06-16 17:53:00,
2013-06-16 13:08:00,87.2,77.0,29.96,ESE,117,12.0,23.0,71,0.00,,,0.00,weatherlink.com 1.10,2013-06-16 18:08:00,
2013-06-16 13:23:00,87.1,77.0,29.96,SE,134,13.0,23.0,72,0.00,,,0.00,weatherlink.com 1.10,2013-06-16 18:23:00,
2013-06-16 13:38:00,87.2,77.0,29.96,East,100,14.0,22.0,72,0.00,,,0.00,weatherlink.com 1.10,2013-06-16 18:38:00,
2013-06-16 13:53:00,86.9,77.0,29.96,ESE,109,21.0,22.0,72,0.00,,,0.00,weatherlink.com 1.10,2013-06-16 18:53:00,
2013-06-16 14:08:00,88.0,77.0,29.95,SSE,151,12.0,24.0,70,0.00,,,0.00,weatherlink.com 1.10,2013-06-16 19:08:00,
2013-06-16 14:23:00,87.0,77.0,29.95,ESE,104,11.0,22.0,72,0.00,,,0.00,weatherlink.com 1.10,2013-06-16 19:23:00,
2013-06-16 14:38:00,88.1,78.0,29.94,ESE,114,19.0,21.0,71,0.00,,,0.00,weatherlink.com 1.10,2013-06-16 19:38:00,
2013-06-16 14:53:00,87.9,77.0,29.93,SE,125,16.0,23.0,70,0.00,,,0.00,weatherlink.com 1.10,2013-06-16 19:53:00,
2013-06-16 15:08:00,86.1,76.0,29.93,ESE,102,15.0,27.0,72,0.00,,,0.00,weatherlink.com 1.10,2013-06-16 20:08:00,
2013-06-16 15:23:00,85.1,76.0,29.94,SE,135,13.0,24.0,74,0.00,,,0.00,weatherlink.com 1.10,2013-06-16 20:23:00,
2013-06-16 15:38:00,85.3,77.0,29.93,ESE,119,16.0,24.0,75,0.00,,,0.00,weatherlink.com 1.10,2013-06-16 20:38:00,
2013-06-16 15:53:00,85.8,76.0,29.93,SE,133,12.0,24.0,73,0.00,,,0.00,weatherlink.com 1.10,2013-06-16 20:53:00,
2013-06-16 16:09:00,86.1,76.0,29.92,SE,144,21.0,23.0,71,0.00,,,0.00,weatherlink.com 1.10,2013-06-16 21:09:00,
2013-06-16 16:23:00,86.6,77.0,29.92,SE,131,14.0,23.0,72,0.00,,,0.00,weatherlink.com 1.10,2013-06-16 21:23:00,
2013-06-16 16:38:00,86.0,76.0,29.92,ESE,109,16.0,24.0,72,0.00,,,0.00,weatherlink.com 1.10,2013-06-16 21:38:00,
2013-06-16 16:53:00,86.3,75.0,29.92,SE,131,12.0,24.0,70,0.00,,,0.00,weatherlink.com 1.10,2013-06-16 21:53:00,
2013-06-16 17:08:00,86.0,76.0,29.92,SE,142,19.0,25.0,71,0.00,,,0.00,weatherlink.com 1.10,2013-06-16 22:08:00,
2013-06-16 17:23:00,86.3,76.0,29.91,ESE,123,14.0,25.0,72,0.00,,,0.00,weatherlink.com 1.10,2013-06-16 22:23:00,
2013-06-16 17:38:00,85.4,75.0,29.91,SE,141,10.0,25.0,72,0.00,,,0.00,weatherlink.com 1.10,2013-06-16 22:38:00,
2013-06-16 17:53:00,84.2,75.0,29.91,SE,143,10.0,23.0,73,0.00,,,0.00,weatherlink.com 1.10,2013-06-16 22:53:00,
2013-06-16 18:08:00,84.0,76.0,29.91,SE,125,19.0,21.0,76,0.00,,,0.00,weatherlink.com 1.10,2013-06-16 23:08:00,
2013-06-16 18:23:00,83.9,75.0,29.90,SE,143,14.0,24.0,74,0.00,,,0.00,weatherlink.com 1.10,2013-06-16 23:23:00,
2013-06-16 18:38:00,83.7,76.0,29.90,SSE,149,13.0,25.0,77,0.00,,,0.00,weatherlink.com 1.10,2013-06-16 23:38:00,
2013-06-16 18:53:00,83.4,75.0,29.90,SSE,150,9.0,26.0,76,0.00,,,0.00,weatherlink.com 1.10,2013-06-16 23:53:00,
2013-06-16 19:08:00,83.2,75.0,29.90,SE,133,14.0,25.0,76,0.00,,,0.00,weatherlink.com 1.10,2013-06-17 00:08:00,
2013-06-16 19:23:00,82.9,75.0,29.90,SSE,148,15.0,26.0,77,0.00,,,0.00,weatherlink.com 1.10,2013-06-17 00:23:00,
2013-06-16 19:38:00,83.0,75.0,29.90,SE,127,21.0,26.0,77,0.00,,,0.00,weatherlink.com 1.10,2013-06-17 00:38:00,
2013-06-16 19:53:00,82.9,75.0,29.90,SSE,151,20.0,26.0,77,0.00,,,0.00,weatherlink.com 1.10,2013-06-17 00:53:00,
2013-06-16 20:08:00,82.6,75.0,29.90,SSE,161,20.0,25.0,78,0.00,,,0.00,weatherlink.com 1.10,2013-06-17 01:08:00,
2013-06-16 20:23:00,82.4,75.0,29.90,SE,141,14.0,25.0,78,0.00,,,0.00,weatherlink.com 1.10,2013-06-17 01:23:00,
2013-06-16 20:38:00,82.3,75.0,29.90,SE,142,13.0,21.0,79,0.00,,,0.00,weatherlink.com 1.10,2013-06-17 01:38:00,
2013-06-16 20:53:00,82.2,75.0,29.90,SE,133,15.0,24.0,78,0.00,,,0.00,weatherlink.com 1.10,2013-06-17 01:53:00,
2013-06-16 21:08:00,82.1,75.0,29.91,SE,139,15.0,21.0,79,0.00,,,0.00,weatherlink.com 1.10,2013-06-17 02:08:00,
2013-06-16 21:23:00,82.0,75.0,29.91,ESE,123,14.0,25.0,79,0.00,,,0.00,weatherlink.com 1.10,2013-06-17 02:23:00,
2013-06-16 21:38:00,82.0,75.0,29.91,SSE,149,20.0,25.0,78,0.00,,,0.00,weatherlink.com 1.10,2013-06-17 02:38:00,
2013-06-16 21:53:00,82.0,75.0,29.91,SE,134,19.0,26.0,79,0.00,,,0.00,weatherlink.com 1.10,2013-06-17 02:53:00,
2013-06-16 22:08:00,82.0,75.0,29.91,SE,146,20.0,27.0,79,0.00,,,0.00,weatherlink.com 1.10,2013-06-17 03:08:00,
2013-06-16 22:23:00,81.8,75.0,29.92,SE,140,19.0,26.0,80,0.00,,,0.00,weatherlink.com 1.10,2013-06-17 03:23:00,
2013-06-16 22:38:00,81.9,75.0,29.93,ESE,123,21.0,26.0,79,0.00,,,0.00,weatherlink.com 1.10,2013-06-17 03:38:00,
2013-06-16 22:53:00,81.8,75.0,29.93,SE,140,18.0,26.0,79,0.00,,,0.00,weatherlink.com 1.10,2013-06-17 03:53:00,
2013-06-16 23:08:00,81.8,75.0,29.93,SSE,158,15.0,28.0,80,0.00,,,0.00,weatherlink.com 1.10,2013-06-17 04:08:00,
2013-06-16 23:23:00,81.7,75.0,29.93,SE,128,19.0,24.0,79,0.00,,,0.00,weatherlink.com 1.10,2013-06-17 04:23:00,
2013-06-16 23:38:00,81.7,75.0,29.93,SE,139,14.0,27.0,80,0.00,,,0.00,weatherlink.com 1.10,2013-06-17 04:38:00,
2013-06-16 23:53:00,81.7,75.0,29.94,SE,146,16.0,23.0,80,0.00,,,0.00,weatherlink.com 1.10,2013-06-17 04:53:00,